Location: Quaker Farms
(41.4276°N, 73.1557°W)
Time: 01:32:20
(UTC+00:00)

Altair - Pass Details

Date: 16 June 2021
Orbit: 1501 x 1682 km, 47.2° (Epoch: 23 July)

Event Time Altitude Azimuth Distance (km) Brightness Sun altitude
Rises 18:49:08 0° 233° (SW) 4,676 10.5 59.9°
Reaches altitude 10° 18:52:08 10° 232° (SW) 3,715 10.2 59.4°
Maximum altitude 19:01:32 77° 148° (SSE) 1,621 8.7 57.8°
Drops below altitude 10° 19:11:22 10° 65° (ENE) 3,869 9.4 56.1°
Sets 19:14:33 0° 64° (ENE) 4,879 9.8 55.5°
